This is the latest recevied weather packets stored in our database for station/object NI4CE-10. If no packets are shown the sender has not sent any weather packets the latest 10 day(s).
| Time | Temp. | Humidity | Pressure | Rain* | Wind** | Luminosity | Snow |
|---|---|---|---|---|---|---|---|
| 1777118626 | 20° C | 100% | 1014.2 hPa | 0 mm | - | - | - |
| 1777118510 | 20° C | 100% | 1014.2 hPa | 0 mm | - | - | - |
| 1777118419 | 20° C | 100% | 1014.2 hPa | 0 mm | - | - | - |
| 1777118291 | 20° C | 100% | 1014.2 hPa | 0 mm | - | - | - |
| 1777118211 | 20° C | 100% | 1014.2 hPa | 0 mm | - | - | - |
| 1777118048 | 16.11° C | 100% | 1014.1 hPa | 0 mm | - | - | - |
| 1777117913 | 19.44° C | 100% | 1014.3 hPa | 0 mm | - | - | - |
| 1777117722 | 18.89° C | 100% | 1014.3 hPa | 0 mm | - | - | - |
| 1777117611 | 18.89° C | 100% | 1014.3 hPa | 0 mm | - | - | - |
| 1777117310 | 18.89° C | 100% | 1014.3 hPa | 0 mm | - | - | - |
| 1777117010 | 18.33° C | 100% | 1014.2 hPa | 0 mm | - | - | - |
| 1777116710 | 17.78° C | 100% | 1014.1 hPa | 0 mm | - | - | - |
| 1777116410 | 16.67° C | 100% | 1014.1 hPa | 0 mm | - | - | - |
| 1777116110 | 16.11° C | 100% | 1014.1 hPa | 0 mm | - | - | - |
| 1777116036 | 16.11° C | 100% | 1014 hPa | 0 mm | - | - | - |
| 1777115810 | 16.11° C | 100% | 1014 hPa | 0 mm | - | - | - |
| 1777115734 | 15.56° C | 100% | 1013.5 hPa | 0 mm | - | - | - |
| 1777115552 | 15.56° C | 100% | 1013.5 hPa | 0 mm | - | - | - |
| 1777115510 | 16.11° C | 100% | 1013.9 hPa | 0 mm | - | - | - |
| 1777115210 | 16.11° C | 100% | 1013.8 hPa | 0 mm | - | - | - |
| 1777114910 | 16.11° C | 100% | 1013.7 hPa | 0 mm | - | - | - |
| 1777114714 | 15.56° C | 100% | 1013.7 hPa | 0 mm | - | - | - |
| 1777114610 | 15.56° C | 100% | 1013.7 hPa | 0 mm | - | - | - |
| 1777114310 | 15.56° C | 100% | 1013.6 hPa | 0 mm | - | - | - |
* Rain latest hour (hover to see other rain measurements)
** Current wind speed in m/s (hover to see current wind gust speed)